Year,Month,Day,Hour,Minute,Value (Times are PST for temperature in C)
2019,03,31,00,00,8.40
2019,03,31,00,01,8.30
2019,03,31,00,02,8.30
2019,03,31,00,03,8.20
2019,03,31,00,04,8.20
2019,03,31,00,05,8.10
2019,03,31,00,06,8.10
2019,03,31,00,07,8.10
2019,03,31,00,08,8.00
2019,03,31,00,09,8.00
2019,03,31,00,10,7.90
2019,03,31,00,11,7.90
2019,03,31,00,12,7.90
2019,03,31,00,13,7.90
2019,03,31,00,14,7.90
2019,03,31,00,15,7.90
2019,03,31,00,16,8.00
2019,03,31,00,17,8.00
2019,03,31,00,18,8.10
2019,03,31,00,19,8.10
2019,03,31,00,20,8.20
2019,03,31,00,21,8.30
2019,03,31,00,22,8.30
2019,03,31,00,23,8.30
2019,03,31,00,24,8.40
2019,03,31,00,25,8.40
2019,03,31,00,26,8.40
2019,03,31,00,27,8.40
2019,03,31,00,28,8.50
2019,03,31,00,29,8.50
2019,03,31,00,30,8.50
2019,03,31,00,31,8.40
2019,03,31,00,32,8.40
2019,03,31,00,33,8.40
2019,03,31,00,34,8.40
2019,03,31,00,35,8.40
2019,03,31,00,36,8.30
2019,03,31,00,37,8.30
2019,03,31,00,38,8.30
2019,03,31,00,39,8.30
2019,03,31,00,40,8.30
2019,03,31,00,41,8.20
2019,03,31,00,42,8.20
2019,03,31,00,43,8.20
2019,03,31,00,44,8.10
2019,03,31,00,45,8.10
2019,03,31,00,46,8.10
2019,03,31,00,47,8.10
2019,03,31,00,48,8.10
2019,03,31,00,49,8.00
2019,03,31,00,50,8.00
2019,03,31,00,51,8.00
2019,03,31,00,52,8.00
2019,03,31,00,53,8.00
2019,03,31,00,54,8.10
2019,03,31,00,55,8.10
2019,03,31,00,56,8.10
2019,03,31,00,57,8.10
2019,03,31,00,58,8.20
2019,03,31,00,59,8.20
2019,03,31,01,00,8.20
2019,03,31,01,01,8.30
2019,03,31,01,02,8.30
2019,03,31,01,03,8.40
2019,03,31,01,04,8.50
2019,03,31,01,05,8.50
2019,03,31,01,06,8.60
2019,03,31,01,07,8.60
2019,03,31,01,08,8.60
2019,03,31,01,09,8.70
2019,03,31,01,10,8.70
2019,03,31,01,11,8.70
2019,03,31,01,12,8.70
2019,03,31,01,13,8.70
2019,03,31,01,14,8.70
2019,03,31,01,15,8.70
2019,03,31,01,16,8.70
2019,03,31,01,17,8.70
2019,03,31,01,18,8.70
2019,03,31,01,19,8.70
2019,03,31,01,20,8.70
2019,03,31,01,21,8.70
2019,03,31,01,22,8.60
2019,03,31,01,23,8.60
2019,03,31,01,24,8.60
2019,03,31,01,25,8.50
2019,03,31,01,26,8.50
2019,03,31,01,27,8.50
2019,03,31,01,28,8.40
2019,03,31,01,29,8.50
2019,03,31,01,30,8.50
2019,03,31,01,31,8.60
2019,03,31,01,32,8.60
2019,03,31,01,33,8.60
2019,03,31,01,34,8.70
2019,03,31,01,35,8.70
2019,03,31,01,36,8.80
2019,03,31,01,37,8.80
2019,03,31,01,38,8.90
2019,03,31,01,39,8.90
2019,03,31,01,40,8.90
2019,03,31,01,41,9.00
2019,03,31,01,42,9.00
2019,03,31,01,43,9.00
2019,03,31,01,44,9.10
2019,03,31,01,45,9.10
2019,03,31,01,46,9.10
2019,03,31,01,47,9.10
2019,03,31,01,48,9.20
2019,03,31,01,49,9.20
2019,03,31,01,50,9.20
2019,03,31,01,51,9.20
2019,03,31,01,52,9.20
2019,03,31,01,53,9.20
2019,03,31,01,54,9.10
2019,03,31,01,55,9.10
2019,03,31,01,56,9.10
2019,03,31,01,57,9.10
2019,03,31,01,58,9.10
2019,03,31,01,59,9.10
2019,03,31,02,00,9.10
2019,03,31,02,01,9.10
2019,03,31,02,02,9.10
2019,03,31,02,03,9.10
2019,03,31,02,04,9.00
2019,03,31,02,05,9.00
2019,03,31,02,06,9.00
2019,03,31,02,07,8.90
2019,03,31,02,08,8.90
2019,03,31,02,09,8.90
2019,03,31,02,10,8.80
2019,03,31,02,11,8.70
2019,03,31,02,12,8.70
2019,03,31,02,13,8.60
2019,03,31,02,14,8.50
2019,03,31,02,15,8.50
2019,03,31,02,16,8.50
2019,03,31,02,17,8.40
2019,03,31,02,18,8.40
2019,03,31,02,19,8.40
2019,03,31,02,20,8.40
2019,03,31,02,21,8.40
2019,03,31,02,22,8.40
2019,03,31,02,23,8.40
2019,03,31,02,24,8.50
2019,03,31,02,25,8.50
2019,03,31,02,26,8.50
2019,03,31,02,27,8.60
2019,03,31,02,28,8.60
2019,03,31,02,29,8.60
2019,03,31,02,30,8.70
2019,03,31,02,31,8.80
2019,03,31,02,32,8.90
2019,03,31,02,33,8.90
2019,03,31,02,34,9.00
2019,03,31,02,35,9.10
2019,03,31,02,36,9.10
2019,03,31,02,37,9.20
2019,03,31,02,38,9.20
2019,03,31,02,39,9.20
2019,03,31,02,40,9.20
2019,03,31,02,41,9.20
2019,03,31,02,42,9.20
2019,03,31,02,43,9.20
2019,03,31,02,44,9.20
2019,03,31,02,45,9.20
2019,03,31,02,46,9.30
2019,03,31,02,47,9.40
2019,03,31,02,48,9.40
2019,03,31,02,49,9.40
2019,03,31,02,50,9.40
2019,03,31,02,51,9.50
2019,03,31,02,52,9.50
2019,03,31,02,53,9.50
2019,03,31,02,54,9.50
2019,03,31,02,55,9.50
2019,03,31,02,56,9.50
2019,03,31,02,57,9.60
2019,03,31,02,58,9.60
2019,03,31,02,59,9.70
2019,03,31,03,00,9.70
2019,03,31,03,01,9.70
2019,03,31,03,02,9.70
2019,03,31,03,03,9.70
2019,03,31,03,04,9.70
2019,03,31,03,05,9.70
2019,03,31,03,06,9.70
2019,03,31,03,07,9.60
2019,03,31,03,08,9.60
2019,03,31,03,09,9.60
2019,03,31,03,10,9.60
2019,03,31,03,11,9.60
2019,03,31,03,12,9.60
2019,03,31,03,13,9.60
2019,03,31,03,14,9.50
2019,03,31,03,15,9.50
2019,03,31,03,16,9.40
2019,03,31,03,17,9.40
2019,03,31,03,18,9.40
2019,03,31,03,19,9.30
2019,03,31,03,20,9.30
2019,03,31,03,21,9.30
2019,03,31,03,22,9.30
2019,03,31,03,23,9.20
2019,03,31,03,24,9.20
2019,03,31,03,25,9.20
2019,03,31,03,26,9.20
2019,03,31,03,27,9.10
2019,03,31,03,28,9.10
2019,03,31,03,29,9.10
2019,03,31,03,30,9.10
2019,03,31,03,31,9.10
2019,03,31,03,32,9.10
2019,03,31,03,33,9.00
2019,03,31,03,34,9.00
2019,03,31,03,35,9.00
2019,03,31,03,36,9.00
2019,03,31,03,37,9.00
2019,03,31,03,38,8.90
2019,03,31,03,39,8.90
2019,03,31,03,40,8.80
2019,03,31,03,41,8.80
2019,03,31,03,42,8.70
2019,03,31,03,43,8.70
2019,03,31,03,44,8.70
2019,03,31,03,45,8.70
2019,03,31,03,46,8.60
2019,03,31,03,47,8.60
2019,03,31,03,48,8.60
2019,03,31,03,49,8.60
2019,03,31,03,50,8.60
2019,03,31,03,51,8.60
2019,03,31,03,52,8.50
2019,03,31,03,53,8.50
2019,03,31,03,54,8.50
2019,03,31,03,55,8.50
2019,03,31,03,56,8.50
2019,03,31,03,57,8.40
2019,03,31,03,58,8.40
2019,03,31,03,59,8.40
2019,03,31,04,00,8.40
2019,03,31,04,01,8.40
2019,03,31,04,02,8.40
2019,03,31,04,03,8.40
2019,03,31,04,04,8.40
2019,03,31,04,05,8.40
2019,03,31,04,06,8.40
2019,03,31,04,07,8.40
2019,03,31,04,08,8.40
2019,03,31,04,09,8.40
2019,03,31,04,10,8.40
2019,03,31,04,11,8.50
2019,03,31,04,12,8.40
2019,03,31,04,13,8.50
2019,03,31,04,14,8.40
2019,03,31,04,15,8.40
2019,03,31,04,16,8.40
2019,03,31,04,17,8.40
2019,03,31,04,18,8.40
2019,03,31,04,19,8.30
2019,03,31,04,20,8.30
2019,03,31,04,21,8.30
2019,03,31,04,22,8.20
2019,03,31,04,23,8.20
2019,03,31,04,24,8.20
2019,03,31,04,25,8.10
2019,03,31,04,26,8.10
2019,03,31,04,27,8.10
2019,03,31,04,28,8.00
2019,03,31,04,29,8.00
2019,03,31,04,30,7.90
2019,03,31,04,31,7.90
2019,03,31,04,32,7.80
2019,03,31,04,33,7.80
2019,03,31,04,34,7.80
2019,03,31,04,35,7.80
2019,03,31,04,36,7.80
2019,03,31,04,37,7.70
2019,03,31,04,38,7.70
2019,03,31,04,39,7.70
2019,03,31,04,40,7.70
2019,03,31,04,41,7.70
2019,03,31,04,42,7.70
2019,03,31,04,43,7.70
2019,03,31,04,44,7.70
2019,03,31,04,45,7.70
2019,03,31,04,46,7.70
2019,03,31,04,47,7.70
2019,03,31,04,48,7.70
2019,03,31,04,49,7.70
2019,03,31,04,50,7.70
2019,03,31,04,51,7.70
2019,03,31,04,52,7.70
2019,03,31,04,53,7.70
2019,03,31,04,54,7.70
2019,03,31,04,55,7.70
2019,03,31,04,56,7.70
2019,03,31,04,57,7.70
2019,03,31,04,58,7.70
2019,03,31,04,59,7.70
2019,03,31,05,00,7.70
2019,03,31,05,01,7.70
2019,03,31,05,02,7.70
2019,03,31,05,03,7.70
2019,03,31,05,04,7.70
2019,03,31,05,05,7.70
2019,03,31,05,06,7.70
2019,03,31,05,07,7.70
2019,03,31,05,08,7.70
2019,03,31,05,09,7.70
2019,03,31,05,10,7.70
2019,03,31,05,11,7.70
2019,03,31,05,12,7.70
2019,03,31,05,13,7.70
2019,03,31,05,14,7.70
2019,03,31,05,15,7.70
2019,03,31,05,16,7.70
2019,03,31,05,17,7.70
2019,03,31,05,18,7.70
2019,03,31,05,19,7.70
2019,03,31,05,20,7.70
2019,03,31,05,21,7.70
2019,03,31,05,22,7.70
2019,03,31,05,23,7.70
2019,03,31,05,24,7.70
2019,03,31,05,25,7.70
2019,03,31,05,26,7.70
2019,03,31,05,27,7.70
2019,03,31,05,28,7.70
2019,03,31,05,29,7.70
2019,03,31,05,30,7.70
2019,03,31,05,31,7.70
2019,03,31,05,32,7.70
2019,03,31,05,33,7.70
2019,03,31,05,34,7.70
2019,03,31,05,35,7.70
2019,03,31,05,36,7.70
2019,03,31,05,37,7.70
2019,03,31,05,38,7.70
2019,03,31,05,39,7.60
2019,03,31,05,40,7.60
2019,03,31,05,41,7.60
2019,03,31,05,42,7.60
2019,03,31,05,43,7.60
2019,03,31,05,44,7.60
2019,03,31,05,45,7.50
2019,03,31,05,46,7.50
2019,03,31,05,47,7.50
2019,03,31,05,48,7.50
2019,03,31,05,49,7.50
2019,03,31,05,50,7.40
2019,03,31,05,51,7.40
2019,03,31,05,52,7.40
2019,03,31,05,53,7.40
2019,03,31,05,54,7.30
2019,03,31,05,55,7.30
2019,03,31,05,56,7.20
2019,03,31,05,57,7.20
2019,03,31,05,58,7.20
2019,03,31,05,59,7.20
2019,03,31,06,00,7.10
2019,03,31,06,01,7.10
2019,03,31,06,02,7.10
2019,03,31,06,03,7.10
2019,03,31,06,04,7.00
2019,03,31,06,05,7.00
2019,03,31,06,06,7.00
2019,03,31,06,07,6.90
2019,03,31,06,08,6.90
2019,03,31,06,09,6.90
2019,03,31,06,10,6.90
2019,03,31,06,11,6.90
2019,03,31,06,12,6.90
2019,03,31,06,13,6.90
2019,03,31,06,14,6.80
2019,03,31,06,15,6.80
2019,03,31,06,16,6.80
2019,03,31,06,17,6.80
2019,03,31,06,18,6.90
2019,03,31,06,19,6.90
2019,03,31,06,20,6.90
2019,03,31,06,21,6.90
2019,03,31,06,22,6.90
2019,03,31,06,23,7.00
2019,03,31,06,24,7.00
2019,03,31,06,25,7.00
2019,03,31,06,26,7.00
2019,03,31,06,27,7.10
2019,03,31,06,28,7.10
2019,03,31,06,29,7.10
2019,03,31,06,30,7.10
2019,03,31,06,31,7.10
2019,03,31,06,32,7.10
2019,03,31,06,33,7.10
2019,03,31,06,34,7.20
2019,03,31,06,35,7.20
2019,03,31,06,36,7.20
2019,03,31,06,37,7.20
2019,03,31,06,38,7.20
2019,03,31,06,39,7.20
2019,03,31,06,40,7.20
2019,03,31,06,41,7.10
2019,03,31,06,42,7.10
2019,03,31,06,43,7.00
2019,03,31,06,44,6.90
2019,03,31,06,45,6.90
2019,03,31,06,46,6.90
2019,03,31,06,47,6.90
2019,03,31,06,48,6.80
2019,03,31,06,49,6.80
2019,03,31,06,50,6.80
2019,03,31,06,51,6.80
2019,03,31,06,52,6.80
2019,03,31,06,53,6.70
2019,03,31,06,54,6.70
2019,03,31,06,55,6.60
2019,03,31,06,56,6.60
2019,03,31,06,57,6.60
2019,03,31,06,58,6.50
2019,03,31,06,59,6.40
2019,03,31,07,00,6.40
2019,03,31,07,01,6.30
2019,03,31,07,02,6.30
2019,03,31,07,03,6.20
2019,03,31,07,04,6.20
2019,03,31,07,05,6.20
2019,03,31,07,06,6.20
2019,03,31,07,07,6.10
2019,03,31,07,08,6.20
2019,03,31,07,09,6.20
2019,03,31,07,10,6.20
2019,03,31,07,11,6.20
2019,03,31,07,12,6.20
2019,03,31,07,13,6.20
2019,03,31,07,14,6.20
2019,03,31,07,15,6.20
2019,03,31,07,16,6.20
2019,03,31,07,17,6.20
2019,03,31,07,18,6.20
2019,03,31,07,19,6.30
2019,03,31,07,20,6.40
2019,03,31,07,21,6.50
2019,03,31,07,22,6.60
2019,03,31,07,23,6.60
2019,03,31,07,24,6.70
2019,03,31,07,25,6.70
2019,03,31,07,26,6.70
2019,03,31,07,27,6.80
2019,03,31,07,28,6.80
2019,03,31,07,29,6.90
2019,03,31,07,30,7.00
2019,03,31,07,31,7.00
2019,03,31,07,32,7.00
2019,03,31,07,33,7.10
2019,03,31,07,34,7.10
2019,03,31,07,35,7.10
2019,03,31,07,36,7.10
2019,03,31,07,37,7.10
2019,03,31,07,38,7.10
2019,03,31,07,39,7.10
2019,03,31,07,40,7.20
2019,03,31,07,41,7.20
2019,03,31,07,42,7.20
2019,03,31,07,43,7.20
2019,03,31,07,44,7.20
2019,03,31,07,45,7.20
2019,03,31,07,46,7.20
2019,03,31,07,47,7.30
2019,03,31,07,48,7.30
2019,03,31,07,49,7.30
2019,03,31,07,50,7.30
2019,03,31,07,51,7.30
2019,03,31,07,52,7.40
2019,03,31,07,53,7.40
2019,03,31,07,54,7.40
2019,03,31,07,55,7.40
2019,03,31,07,56,7.50
2019,03,31,07,57,7.50
2019,03,31,07,58,7.50
2019,03,31,07,59,7.50
2019,03,31,08,00,7.60
2019,03,31,08,01,7.60
2019,03,31,08,02,7.60
2019,03,31,08,03,7.60
2019,03,31,08,04,7.70
2019,03,31,08,05,7.70
2019,03,31,08,06,7.70
2019,03,31,08,07,7.70
2019,03,31,08,08,7.80
2019,03,31,08,09,7.80
2019,03,31,08,10,7.80
2019,03,31,08,11,7.80
2019,03,31,08,12,7.90
2019,03,31,08,13,7.90
2019,03,31,08,14,8.00
2019,03,31,08,15,8.00
2019,03,31,08,16,8.10
2019,03,31,08,17,8.10
2019,03,31,08,18,8.20
2019,03,31,08,19,8.20
2019,03,31,08,20,8.30
2019,03,31,08,21,8.30
2019,03,31,08,22,8.40
2019,03,31,08,23,8.40
2019,03,31,08,24,8.50
2019,03,31,08,25,8.50
2019,03,31,08,26,8.50
2019,03,31,08,27,8.60
2019,03,31,08,28,8.60
2019,03,31,08,29,8.60
2019,03,31,08,30,8.60
2019,03,31,08,31,8.70
2019,03,31,08,32,8.70
2019,03,31,08,33,8.80
2019,03,31,08,34,8.80
2019,03,31,08,35,8.80
2019,03,31,08,36,8.90
2019,03,31,08,37,8.90
2019,03,31,08,38,8.90
2019,03,31,08,39,8.90
2019,03,31,08,40,9.00
2019,03,31,08,41,9.00
2019,03,31,08,42,9.00
2019,03,31,08,43,9.00
2019,03,31,08,44,9.00
2019,03,31,08,45,9.00
2019,03,31,08,46,9.00
2019,03,31,08,47,9.10
2019,03,31,08,48,9.10
2019,03,31,08,49,9.10
2019,03,31,08,50,9.10
2019,03,31,08,51,9.20
2019,03,31,08,52,9.20
2019,03,31,08,53,9.20
2019,03,31,08,54,9.20
2019,03,31,08,55,9.20
2019,03,31,08,56,9.20
2019,03,31,08,57,9.20
2019,03,31,08,58,9.30
2019,03,31,08,59,9.30
2019,03,31,09,00,9.30
2019,03,31,09,01,9.30
2019,03,31,09,02,9.30
2019,03,31,09,03,9.30
2019,03,31,09,04,9.40
2019,03,31,09,05,9.40
2019,03,31,09,06,9.40
2019,03,31,09,07,9.40
2019,03,31,09,08,9.50
2019,03,31,09,09,9.50
2019,03,31,09,10,9.50
2019,03,31,09,11,9.50
2019,03,31,09,12,9.50
2019,03,31,09,13,9.60
2019,03,31,09,14,9.60
2019,03,31,09,15,9.60
2019,03,31,09,16,9.70
2019,03,31,09,17,9.80
2019,03,31,09,18,9.80
2019,03,31,09,19,9.90
2019,03,31,09,20,9.90
2019,03,31,09,21,9.90
2019,03,31,09,22,9.90
2019,03,31,09,23,10.00
2019,03,31,09,24,10.00
2019,03,31,09,25,10.00
2019,03,31,09,26,10.00
2019,03,31,09,27,10.10
2019,03,31,09,28,10.00
2019,03,31,09,29,10.00
2019,03,31,09,30,10.00
2019,03,31,09,31,10.00
2019,03,31,09,32,10.10
2019,03,31,09,33,10.10
2019,03,31,09,34,10.10
2019,03,31,09,35,10.20
2019,03,31,09,36,10.20
2019,03,31,09,37,10.30
2019,03,31,09,38,10.30
2019,03,31,09,39,10.30
2019,03,31,09,40,10.30
2019,03,31,09,41,10.30
2019,03,31,09,42,10.30
2019,03,31,09,43,10.30
2019,03,31,09,44,10.30
2019,03,31,09,45,10.30
2019,03,31,09,46,10.20
2019,03,31,09,47,10.20
2019,03,31,09,48,10.20
2019,03,31,09,49,10.20
2019,03,31,09,50,10.20
2019,03,31,09,51,10.30
2019,03,31,09,52,10.30
2019,03,31,09,53,10.30
2019,03,31,09,54,10.40
2019,03,31,09,55,10.40
2019,03,31,09,56,10.40
2019,03,31,09,57,10.50
2019,03,31,09,58,10.50
2019,03,31,09,59,10.50
2019,03,31,10,00,10.50
2019,03,31,10,01,10.60
2019,03,31,10,02,10.60
2019,03,31,10,03,10.60
2019,03,31,10,04,10.70
2019,03,31,10,05,10.60
2019,03,31,10,06,10.60
2019,03,31,10,07,10.70
2019,03,31,10,08,10.70
2019,03,31,10,09,10.70
2019,03,31,10,10,10.70
2019,03,31,10,11,10.70
2019,03,31,10,12,10.80
2019,03,31,10,13,10.80
2019,03,31,10,14,10.80
2019,03,31,10,15,10.80
2019,03,31,10,16,10.90
2019,03,31,10,17,10.90
2019,03,31,10,18,10.90
2019,03,31,10,19,11.00
2019,03,31,10,20,11.00
2019,03,31,10,21,11.10
2019,03,31,10,22,11.10
2019,03,31,10,23,11.20
2019,03,31,10,24,11.20
2019,03,31,10,25,11.20
2019,03,31,10,26,11.20
2019,03,31,10,27,11.20
2019,03,31,10,28,11.20
2019,03,31,10,29,11.30
2019,03,31,10,30,11.30
2019,03,31,10,31,11.30
2019,03,31,10,32,11.40
2019,03,31,10,33,11.40
2019,03,31,10,34,11.50
2019,03,31,10,35,11.50
2019,03,31,10,36,11.60
2019,03,31,10,37,11.70
2019,03,31,10,38,11.70
2019,03,31,10,39,11.80
2019,03,31,10,40,11.90
2019,03,31,10,41,11.90
2019,03,31,10,42,12.00
2019,03,31,10,43,12.00
2019,03,31,10,44,12.00
2019,03,31,10,45,12.10
2019,03,31,10,46,12.10
2019,03,31,10,47,12.10
2019,03,31,10,48,12.10
2019,03,31,10,49,12.20
2019,03,31,10,50,12.20
2019,03,31,10,51,12.30
2019,03,31,10,52,12.30
2019,03,31,10,53,12.40
2019,03,31,10,54,12.40
2019,03,31,10,55,12.40
2019,03,31,10,56,12.40
2019,03,31,10,57,12.50
2019,03,31,10,58,12.60
2019,03,31,10,59,12.60
2019,03,31,11,00,12.70
2019,03,31,11,01,12.70
2019,03,31,11,02,12.70
2019,03,31,11,03,12.70
2019,03,31,11,04,12.60
2019,03,31,11,05,12.60
2019,03,31,11,06,12.60
2019,03,31,11,07,12.60
2019,03,31,11,08,12.60
2019,03,31,11,09,12.70
2019,03,31,11,10,12.70
2019,03,31,11,11,12.70
2019,03,31,11,12,12.70
2019,03,31,11,13,12.70
2019,03,31,11,14,12.80
2019,03,31,11,15,12.80
2019,03,31,11,16,12.80
2019,03,31,11,17,12.90
2019,03,31,11,18,13.00
2019,03,31,11,19,13.00
2019,03,31,11,20,13.10
2019,03,31,11,21,13.20
2019,03,31,11,22,13.20
2019,03,31,11,23,13.30
2019,03,31,11,24,13.30
2019,03,31,11,25,13.30
2019,03,31,11,26,13.30
2019,03,31,11,27,13.40
2019,03,31,11,28,13.40
2019,03,31,11,29,13.50
2019,03,31,11,30,13.50
2019,03,31,11,31,13.60
2019,03,31,11,32,13.60
2019,03,31,11,33,13.60
2019,03,31,11,34,13.60
2019,03,31,11,35,13.60
2019,03,31,11,36,13.60
2019,03,31,11,37,13.60
2019,03,31,11,38,13.60
2019,03,31,11,39,13.50
2019,03,31,11,40,13.50
2019,03,31,11,41,13.40
2019,03,31,11,42,13.30
2019,03,31,11,43,13.20
2019,03,31,11,44,13.20
2019,03,31,11,45,13.10
2019,03,31,11,46,13.20
2019,03,31,11,47,13.20
2019,03,31,11,48,13.10
2019,03,31,11,49,13.10
2019,03,31,11,50,13.00
2019,03,31,11,51,12.90
2019,03,31,11,52,12.80
2019,03,31,11,53,12.80
2019,03,31,11,54,12.80
2019,03,31,11,55,12.80
2019,03,31,11,56,12.80
2019,03,31,11,57,12.80
2019,03,31,11,58,12.70
2019,03,31,11,59,12.60
2019,03,31,12,00,12.60
2019,03,31,12,01,12.50
2019,03,31,12,02,12.50
2019,03,31,12,03,12.50
2019,03,31,12,04,12.50
2019,03,31,12,05,12.50
2019,03,31,12,06,12.60
2019,03,31,12,07,12.60
2019,03,31,12,08,12.70
2019,03,31,12,09,12.70
2019,03,31,12,10,12.70
2019,03,31,12,11,12.70
2019,03,31,12,12,12.70
2019,03,31,12,13,12.60
2019,03,31,12,14,12.60
2019,03,31,12,15,12.50
2019,03,31,12,16,12.50
2019,03,31,12,17,12.60
2019,03,31,12,18,12.60
2019,03,31,12,19,12.60
2019,03,31,12,20,12.60
2019,03,31,12,21,12.60
2019,03,31,12,22,12.70
2019,03,31,12,23,12.70
2019,03,31,12,24,12.80
2019,03,31,12,25,12.80
2019,03,31,12,26,12.90
2019,03,31,12,27,13.00
2019,03,31,12,28,13.00
2019,03,31,12,29,13.10
2019,03,31,12,30,13.10
2019,03,31,12,31,13.10
2019,03,31,12,32,13.10
2019,03,31,12,33,13.10
2019,03,31,12,34,13.10
2019,03,31,12,35,13.10
2019,03,31,12,36,13.20
2019,03,31,12,37,13.20
2019,03,31,12,38,13.30
2019,03,31,12,39,13.40
2019,03,31,12,40,13.40
2019,03,31,12,41,13.40
2019,03,31,12,42,13.50
2019,03,31,12,43,13.50
2019,03,31,12,44,13.50
2019,03,31,12,45,13.50
2019,03,31,12,46,13.50
2019,03,31,12,47,13.50
2019,03,31,12,48,13.60
2019,03,31,12,49,13.60
2019,03,31,12,50,13.70
2019,03,31,12,51,13.70
2019,03,31,12,52,13.70
2019,03,31,12,53,13.80
2019,03,31,12,54,13.80
2019,03,31,12,55,13.90
2019,03,31,12,56,13.90
2019,03,31,12,57,13.90
2019,03,31,12,58,14.00
2019,03,31,12,59,14.00
2019,03,31,13,00,13.90
2019,03,31,13,01,13.80
2019,03,31,13,02,13.80
2019,03,31,13,03,13.90
2019,03,31,13,04,13.90
2019,03,31,13,05,13.90
2019,03,31,13,06,13.90
2019,03,31,13,07,13.90
2019,03,31,13,08,13.90
2019,03,31,13,09,13.90
2019,03,31,13,10,13.90
2019,03,31,13,11,13.90
2019,03,31,13,12,13.90
2019,03,31,13,13,13.90
2019,03,31,13,14,13.90
2019,03,31,13,15,13.90
2019,03,31,13,16,13.90
2019,03,31,13,17,13.90
2019,03,31,13,18,13.90
2019,03,31,13,19,14.00
2019,03,31,13,20,13.90
2019,03,31,13,21,13.90
2019,03,31,13,22,13.90
2019,03,31,13,23,14.00
2019,03,31,13,24,14.00
2019,03,31,13,25,14.00
2019,03,31,13,26,14.10
2019,03,31,13,27,14.10
2019,03,31,13,28,14.10
2019,03,31,13,29,14.10
2019,03,31,13,30,14.10
2019,03,31,13,31,14.10
2019,03,31,13,32,14.10
2019,03,31,13,33,14.10
2019,03,31,13,34,14.20
2019,03,31,13,35,14.20
2019,03,31,13,36,14.10
2019,03,31,13,37,14.10
2019,03,31,13,38,14.10
2019,03,31,13,39,14.10
2019,03,31,13,40,14.20
2019,03,31,13,41,14.20
2019,03,31,13,42,14.30
2019,03,31,13,43,14.30
2019,03,31,13,44,14.30
2019,03,31,13,45,14.20
2019,03,31,13,46,14.20
2019,03,31,13,47,14.20
2019,03,31,13,48,14.20
2019,03,31,13,49,14.20
2019,03,31,13,50,14.30
2019,03,31,13,51,14.30
2019,03,31,13,52,14.20
2019,03,31,13,53,14.20
2019,03,31,13,54,14.30
2019,03,31,13,55,14.30
2019,03,31,13,56,14.30
2019,03,31,13,57,14.30
2019,03,31,13,58,14.40
2019,03,31,13,59,14.30
2019,03,31,14,00,14.30
2019,03,31,14,01,14.30
2019,03,31,14,02,14.30
2019,03,31,14,03,14.30
2019,03,31,14,04,14.40
2019,03,31,14,05,14.50
2019,03,31,14,06,14.50
2019,03,31,14,07,14.60
2019,03,31,14,08,14.60
2019,03,31,14,09,14.60
2019,03,31,14,10,14.70
2019,03,31,14,11,14.60
2019,03,31,14,12,14.60
2019,03,31,14,13,14.60
2019,03,31,14,14,14.60
2019,03,31,14,15,14.60
2019,03,31,14,16,14.60
2019,03,31,14,17,14.50
2019,03,31,14,18,14.50
2019,03,31,14,19,14.50
2019,03,31,14,20,14.60
2019,03,31,14,21,14.60
2019,03,31,14,22,14.70
2019,03,31,14,23,14.70
2019,03,31,14,24,14.70
2019,03,31,14,25,14.80
2019,03,31,14,26,14.80
2019,03,31,14,27,14.90
2019,03,31,14,28,15.00
2019,03,31,14,29,15.10
2019,03,31,14,30,15.20
2019,03,31,14,31,15.20
2019,03,31,14,32,15.20
2019,03,31,14,33,15.20
2019,03,31,14,34,15.20
2019,03,31,14,35,15.20
2019,03,31,14,36,15.20
2019,03,31,14,37,15.20
2019,03,31,14,38,15.20
2019,03,31,14,39,15.20
2019,03,31,14,40,15.20
2019,03,31,14,41,15.30
2019,03,31,14,42,15.30
2019,03,31,14,43,15.30
2019,03,31,14,44,15.30
2019,03,31,14,45,15.30
2019,03,31,14,46,15.30
2019,03,31,14,47,15.20
2019,03,31,14,48,15.20
2019,03,31,14,49,15.20
2019,03,31,14,50,15.20
2019,03,31,14,51,15.20
2019,03,31,14,52,15.20
2019,03,31,14,53,15.20
2019,03,31,14,54,15.20
2019,03,31,14,55,15.10
2019,03,31,14,56,15.20
2019,03,31,14,57,15.20
2019,03,31,14,58,15.20
2019,03,31,14,59,15.30
2019,03,31,15,00,15.30
2019,03,31,15,01,15.40
2019,03,31,15,02,15.50
2019,03,31,15,03,15.50
2019,03,31,15,04,15.50
2019,03,31,15,05,15.50
2019,03,31,15,06,15.50
2019,03,31,15,07,15.50
2019,03,31,15,08,15.60
2019,03,31,15,09,15.70
2019,03,31,15,10,15.70
2019,03,31,15,11,15.70
2019,03,31,15,12,15.70
2019,03,31,15,13,15.70
2019,03,31,15,14,15.70
2019,03,31,15,15,15.70
2019,03,31,15,16,15.80
2019,03,31,15,17,15.80
2019,03,31,15,18,15.80
2019,03,31,15,19,15.90
2019,03,31,15,20,15.90
2019,03,31,15,21,16.00
2019,03,31,15,22,16.10
2019,03,31,15,23,16.30
2019,03,31,15,24,16.40
2019,03,31,15,25,16.50
2019,03,31,15,26,16.50
2019,03,31,15,27,16.60
2019,03,31,15,28,16.60
2019,03,31,15,29,16.70
2019,03,31,15,30,16.60
2019,03,31,15,31,16.70
2019,03,31,15,32,16.70
2019,03,31,15,33,16.70
2019,03,31,15,34,16.80
2019,03,31,15,35,16.80
2019,03,31,15,36,16.80
2019,03,31,15,37,16.80
2019,03,31,15,38,16.80
2019,03,31,15,39,16.80
2019,03,31,15,40,16.80
2019,03,31,15,41,16.80
2019,03,31,15,42,16.80
2019,03,31,15,43,16.80
2019,03,31,15,44,16.80
2019,03,31,15,45,16.80
2019,03,31,15,46,16.80
2019,03,31,15,47,16.80
2019,03,31,15,48,16.80
2019,03,31,15,49,16.90
2019,03,31,15,50,16.90
2019,03,31,15,51,17.00
2019,03,31,15,52,17.10
2019,03,31,15,53,17.10
2019,03,31,15,54,17.10
2019,03,31,15,55,17.10
2019,03,31,15,56,17.10
2019,03,31,15,57,17.00
2019,03,31,15,58,16.90
2019,03,31,15,59,16.90
2019,03,31,16,00,16.90
2019,03,31,16,01,16.90
2019,03,31,16,02,16.90
2019,03,31,16,03,16.90
2019,03,31,16,04,16.90
2019,03,31,16,05,16.90
2019,03,31,16,06,16.90
2019,03,31,16,07,16.90
2019,03,31,16,08,16.80
2019,03,31,16,09,16.70
2019,03,31,16,10,16.70
2019,03,31,16,11,16.70
2019,03,31,16,12,16.70
2019,03,31,16,13,16.70
2019,03,31,16,14,16.70
2019,03,31,16,15,16.70
2019,03,31,16,16,16.70
2019,03,31,16,17,16.80
2019,03,31,16,18,16.80
2019,03,31,16,19,16.80
2019,03,31,16,20,16.80
2019,03,31,16,21,16.80
2019,03,31,16,22,16.90
2019,03,31,16,23,16.90
2019,03,31,16,24,17.00
2019,03,31,16,25,17.00
2019,03,31,16,26,17.10
2019,03,31,16,27,17.20
2019,03,31,16,28,17.30
2019,03,31,16,29,17.30
2019,03,31,16,30,17.40
2019,03,31,16,31,17.40
2019,03,31,16,32,17.40
2019,03,31,16,33,17.40
2019,03,31,16,34,17.40
2019,03,31,16,35,17.40
2019,03,31,16,36,17.40
2019,03,31,16,37,17.50
2019,03,31,16,38,17.40
2019,03,31,16,39,17.40
2019,03,31,16,40,17.40
2019,03,31,16,41,17.40
2019,03,31,16,42,17.40
2019,03,31,16,43,17.30
2019,03,31,16,44,17.30
2019,03,31,16,45,17.30
2019,03,31,16,46,17.40
2019,03,31,16,47,17.40
2019,03,31,16,48,17.50
2019,03,31,16,49,17.50
2019,03,31,16,50,17.60
2019,03,31,16,51,17.60
2019,03,31,16,52,17.60
2019,03,31,16,53,17.70
2019,03,31,16,54,17.70
2019,03,31,16,55,17.70
2019,03,31,16,56,17.70
2019,03,31,16,57,17.80
2019,03,31,16,58,17.80
2019,03,31,16,59,17.80
2019,03,31,17,00,17.70
2019,03,31,17,01,17.70
2019,03,31,17,02,17.70
2019,03,31,17,03,17.70
2019,03,31,17,04,17.70
2019,03,31,17,05,17.60
2019,03,31,17,06,17.60
2019,03,31,17,07,17.60
2019,03,31,17,08,17.50
2019,03,31,17,09,17.50
2019,03,31,17,10,17.50
2019,03,31,17,11,17.50
2019,03,31,17,12,17.50
2019,03,31,17,13,17.50
2019,03,31,17,14,17.40
2019,03,31,17,15,17.40
2019,03,31,17,16,17.40
2019,03,31,17,17,17.40
2019,03,31,17,18,17.40
2019,03,31,17,19,17.40
2019,03,31,17,20,17.50
2019,03,31,17,21,17.50
2019,03,31,17,22,17.50
2019,03,31,17,23,17.60
2019,03,31,17,24,17.60
2019,03,31,17,25,17.60
2019,03,31,17,26,17.60
2019,03,31,17,27,17.60
2019,03,31,17,28,17.70
2019,03,31,17,29,17.70
2019,03,31,17,30,17.70
2019,03,31,17,31,17.60
2019,03,31,17,32,17.60
2019,03,31,17,33,17.60
2019,03,31,17,34,17.60
2019,03,31,17,35,17.60
2019,03,31,17,36,17.70
2019,03,31,17,37,17.70
2019,03,31,17,38,17.70
2019,03,31,17,39,17.70
2019,03,31,17,40,17.70
2019,03,31,17,41,17.70
2019,03,31,17,42,17.80
2019,03,31,17,43,17.80